Joliet, IL

7:52 PM CDT on May 26, 2017 (GMT -0500)
Joliet Regional

Weather History for KJOT - October, 2012

Change the Weather History Date:

Wednesday, October 17, 2012

  Actual Average (KARR) Record (KARR)
Temperature  
Mean Temperature 59 °F -  
Max Temperature 67 °F 60 °F 84 °F (2016)
Min Temperature 51 °F 36 °F 25 °F (2003)
Degree Days  
Heating Degree Days 6    
Growing Degree Days 9 (Base 50)    
Moisture  
Dew Point 53 °F    
Average Humidity 79    
Maximum Humidity 99    
Minimum Humidity 58    
Precipitation  
Precipitation 0.58 in - - ()
Sea Level Pressure  
Sea Level Pressure 29.47 in    
Wind  
Wind Speed 12 mph (SSE)    
Max Wind Speed 18 mph    
Max Gust Speed 26 mph    
Visibility 9 miles    
Events Rain , Thunderstorm    
Averages and records for this station are not official NWS values.
T = Trace of Precipitation, MM = Missing Value Source: NWS Daily Summary

Daily Weather History Graph

Daily Weather History Graph

Search for Another Location

Airport or City:

Trip Planner

Search our weather history database for the weather conditions in past years. The results will help you decide how hot, cold, wet, or windy it might be!

Date:

Astronomy

Oct. 17, 2012 Rise Set
Actual Time 7:07 AM CDT 6:07 PM CDT
Civil Twilight 6:39 AM CDT 6:35 PM CDT
Nautical Twilight 6:07 AM CDT 7:07 PM CDT
Astronomical Twilight 5:35 AM CDT 7:39 PM CDT
Moon 9:43 AM CDT (10/17) 7:41 PM CDT (10/17)
Length of Visible Light 11h 56m
Length of Day
11h 00m
Waxing Crescent, 7% of the Moon is Illuminated
Oct 17
Waxing Crescent
Oct 21
First Quarter
Oct 29
Full
Nov 6
Last Quarter
Nov 13
New

Hourly Weather History & Observations

Time (CDT) Temp. Dew Point Humidity Pressure Visibility Wind Dir Wind Speed Gust Speed Precip Events Conditions
12:15 AM 64.8 °F 52.2 °F 64% 29.57 in 10.0 mi South 12.7 mph 19.6 mph N/A   Overcast
12:35 AM 64.8 °F 51.8 °F 63% 29.57 in 10.0 mi South 13.8 mph 19.6 mph N/A   Mostly Cloudy
12:55 AM 64.6 °F 51.4 °F 62% 29.57 in 10.0 mi South 10.4 mph 16.1 mph N/A   Mostly Cloudy
1:15 AM 64.4 °F 51.3 °F 62% 29.58 in 10.0 mi South 9.2 mph 19.6 mph N/A   Mostly Cloudy
1:35 AM 64.4 °F 50.9 °F 62% 29.58 in 10.0 mi South 9.2 mph 17.3 mph N/A   Overcast
1:55 AM 64.8 °F 50.2 °F 59% 29.58 in 10.0 mi South 11.5 mph 19.6 mph N/A   Overcast
2:15 AM 64.8 °F 49.8 °F 58% 29.58 in 10.0 mi South 12.7 mph 17.3 mph N/A   Overcast
2:35 AM 64.4 °F 50.0 °F 59% 29.57 in 10.0 mi South 10.4 mph - N/A   Overcast
2:55 AM 64.0 °F 49.6 °F 59% 29.56 in 10.0 mi South 10.4 mph - N/A   Overcast
3:15 AM 63.7 °F 50.2 °F 61% 29.56 in 10.0 mi South 8.1 mph 16.1 mph N/A   Overcast
3:35 AM 62.2 °F 50.2 °F 65% 29.56 in 10.0 mi South 9.2 mph - N/A   Scattered Clouds
3:55 AM 61.0 °F 50.2 °F 68% 29.56 in 10.0 mi SSE 10.4 mph - N/A   Clear
4:15 AM 59.9 °F 50.0 °F 70% 29.56 in 10.0 mi South 9.2 mph 16.1 mph N/A   Clear
4:35 AM 59.0 °F 50.0 °F 72% 29.56 in 10.0 mi South 10.4 mph 16.1 mph N/A   Clear
4:55 AM 59.0 °F 50.0 °F 72% 29.56 in 10.0 mi South 8.1 mph 16.1 mph N/A   Clear
5:15 AM 58.1 °F 49.6 °F 73% 29.56 in 10.0 mi South 13.8 mph 20.7 mph N/A   Clear
5:35 AM 58.1 °F 49.3 °F 72% 29.56 in 10.0 mi South 11.5 mph 18.4 mph N/A   Clear
5:55 AM 57.6 °F 49.1 °F 73% 29.56 in 10.0 mi South 12.7 mph 19.6 mph N/A   Clear
6:15 AM 57.6 °F 49.1 °F 73% 29.56 in 10.0 mi South 11.5 mph 18.4 mph N/A   Clear
6:35 AM 57.2 °F 48.7 °F 73% 29.55 in 10.0 mi South 11.5 mph - N/A   Clear
6:55 AM 56.8 °F 48.4 °F 73% 29.55 in 10.0 mi South 12.7 mph 16.1 mph N/A   Clear
7:15 AM 56.8 °F 48.4 °F 73% 29.55 in 10.0 mi South 10.4 mph 19.6 mph N/A   Clear
7:35 AM 57.2 °F 48.6 °F 73% 29.55 in 10.0 mi SSE 10.4 mph 18.4 mph N/A   Clear
7:55 AM 57.7 °F 49.1 °F 73% 29.55 in 10.0 mi SSE 10.4 mph 16.1 mph N/A   Clear
8:15 AM 58.1 °F 49.1 °F 72% 29.54 in 10.0 mi SSE 9.2 mph 17.3 mph N/A   Clear
8:35 AM 58.8 °F 49.6 °F 72% 29.55 in 10.0 mi SSE 10.4 mph 16.1 mph N/A   Clear
8:55 AM 59.5 °F 49.8 °F 70% 29.54 in 10.0 mi SSE 11.5 mph - N/A   Scattered Clouds
9:15 AM 59.9 °F 50.2 °F 70% 29.54 in 10.0 mi South 10.4 mph 18.4 mph N/A   Clear
9:35 AM 59.9 °F 50.4 °F 71% 29.54 in 10.0 mi South 12.7 mph 19.6 mph N/A   Mostly Cloudy
9:55 AM 60.8 °F 50.5 °F 69% 29.54 in 10.0 mi South 9.2 mph 17.3 mph N/A   Overcast
10:15 AM 61.5 °F 51.1 °F 69% 29.54 in 10.0 mi South 15.0 mph 18.4 mph N/A   Overcast
10:35 AM 61.9 °F 51.4 °F 69% 29.52 in 10.0 mi South 12.7 mph 17.3 mph N/A   Mostly Cloudy
10:55 AM 62.2 °F 51.4 °F 68% 29.51 in 10.0 mi South 10.4 mph 19.6 mph N/A   Scattered Clouds
11:15 AM 62.6 °F 51.8 °F 68% 29.51 in 10.0 mi South 11.5 mph 18.4 mph N/A   Mostly Cloudy
11:35 AM 63.5 °F 52.0 °F 66% 29.50 in 10.0 mi South 12.7 mph 19.6 mph N/A   Overcast
11:55 AM 64.2 °F 52.7 °F 66% 29.50 in 10.0 mi South 10.4 mph 18.4 mph N/A Thunderstorm Overcast
12:15 PM 66.7 °F 53.6 °F 63% 29.50 in 10.0 mi SSE 13.8 mph 25.3 mph N/A   Mostly Cloudy
12:35 PM 66.6 °F 53.2 °F 62% 29.49 in 10.0 mi South 17.3 mph 26.5 mph N/A   Scattered Clouds
12:55 PM 67.1 °F 53.6 °F 62% 29.49 in 10.0 mi South 18.4 mph 24.2 mph N/A   Scattered Clouds
1:15 PM 65.3 °F 53.6 °F 66% 29.48 in 10.0 mi SSE 17.3 mph 23.0 mph N/A   Mostly Cloudy
1:35 PM 64.0 °F 53.8 °F 69% 29.48 in 10.0 mi South 16.1 mph 23.0 mph N/A   Overcast
1:55 PM 64.0 °F 54.1 °F 70% 29.47 in 10.0 mi SSE 12.7 mph 17.3 mph N/A   Overcast
2:15 PM 63.9 °F 54.5 °F 72% 29.46 in 10.0 mi SSE 16.1 mph 21.9 mph N/A   Mostly Cloudy
2:35 PM 64.4 °F 54.7 °F 71% 29.44 in 10.0 mi South 16.1 mph 21.9 mph N/A   Mostly Cloudy
2:55 PM 64.2 °F 54.9 °F 72% 29.44 in 10.0 mi SSE 15.0 mph 20.7 mph N/A   Overcast
3:15 PM 62.2 °F 57.2 °F 84% 29.44 in 10.0 mi South 12.7 mph 20.7 mph N/A Rain , Thunderstorm Rain
3:35 PM 60.8 °F 57.7 °F 90% 29.44 in 10.0 mi SSE 11.5 mph 18.4 mph 0.01 in Rain Light Rain
3:55 PM 60.3 °F 57.9 °F 92% 29.45 in 5.0 mi South 12.7 mph 20.7 mph 0.04 in Rain , Thunderstorm Heavy Thunderstorms and Rain
4:15 PM 59.2 °F 58.5 °F 97% 29.45 in 3.0 mi SSE 9.2 mph 16.1 mph 0.07 in Rain , Thunderstorm Rain
4:35 PM 59.0 °F 58.5 °F 98% 29.40 in 3.0 mi ESE 8.1 mph - 0.15 in Rain , Thunderstorm Heavy Thunderstorms and Rain
4:55 PM 59.0 °F 58.5 °F 98% 29.41 in 10.0 mi SSE 11.5 mph - 0.15 in Rain Light Rain
5:15 PM 59.2 °F 58.8 °F 99% 29.41 in 10.0 mi SSE 10.4 mph - N/A   Overcast
5:35 PM 59.4 °F 59.0 °F 99% 29.40 in 7.0 mi SE 9.2 mph - N/A   Drizzle
5:55 PM 59.2 °F 58.8 °F 99% 29.39 in 3.0 mi SE 8.1 mph - 0.01 in Rain Rain
6:15 PM 59.4 °F 59.0 °F 99% 29.37 in 2.5 mi SE 9.2 mph - N/A   Drizzle
6:35 PM 59.2 °F 59.0 °F 99% 29.36 in 2.0 mi SE 10.4 mph 17.3 mph N/A   Drizzle
6:55 PM 59.2 °F 59.0 °F 99% 29.35 in 2.0 mi ESE 11.5 mph 17.3 mph 0.02 in Rain Rain
7:15 PM 58.3 °F 57.7 °F 98% 29.34 in 1.5 mi ESE 11.5 mph 20.7 mph 0.02 in Rain Rain
7:35 PM 57.6 °F 57.2 °F 99% 29.32 in 4.0 mi ESE 12.7 mph - 0.07 in Rain Light Rain
7:55 PM 57.2 °F 56.7 °F 98% 29.30 in 3.0 mi East 13.8 mph - 0.07 in Rain Rain
8:15 PM 57.4 °F 56.8 °F 98% 29.28 in 7.0 mi ESE 13.8 mph 20.7 mph 0.01 in Rain Light Rain
8:35 PM 57.6 °F 56.8 °F 97% 29.28 in 5.0 mi ESE 12.7 mph 20.7 mph 0.03 in Rain Rain
8:55 PM 57.6 °F 56.8 °F 97% 29.28 in 3.0 mi ESE 11.5 mph 19.6 mph 0.11 in Rain Heavy Rain
9:15 PM 57.6 °F 57.2 °F 99% 29.29 in 1.8 mi SW 18.4 mph 25.3 mph 0.13 in Rain Heavy Rain
9:35 PM 55.8 °F 55.2 °F 98% 29.30 in 5.0 mi West 12.7 mph 26.5 mph 0.17 in Rain Light Rain
9:55 PM 53.6 °F 53.2 °F 99% 29.33 in 10.0 mi West 12.7 mph 24.2 mph 0.18 in Rain Light Rain
10:15 PM 52.7 °F 52.5 °F 99% 29.34 in 10.0 mi West 9.2 mph 17.3 mph N/A   Overcast
10:35 PM 53.6 °F 51.8 °F 94% 29.38 in 10.0 mi WSW 8.1 mph - N/A   Overcast
10:55 PM 52.7 °F 52.2 °F 98% 29.36 in 10.0 mi WSW 6.9 mph - N/A   Overcast
11:15 PM 51.8 °F 51.3 °F 98% 29.36 in 10.0 mi WSW 8.1 mph - N/A   Scattered Clouds
11:35 PM 51.6 °F 50.9 °F 97% 29.38 in 10.0 mi SSW 8.1 mph - N/A   Mostly Cloudy
11:55 PM 51.8 °F 50.9 °F 97% 29.37 in 10.0 mi SW 5.8 mph - N/A   Overcast